Le nostre stazioni meteo in Italia

Pubblicità
Il mio iltempo24.it
Trieste, Italia (16110): Temperatura & dewpoint: 13.03.2019 19:00:00 - 19.03.2019 19:00:00 (CET)Trieste, Italia (16110): velocità del vento: 13.03.2019 19:00:00 - 19.03.2019 19:00:00 (CET)Trieste, Italia (16110): direzione del vento: 13.03.2019 19:00:00 - 19.03.2019 19:00:00 (CET)Trieste, Italia (16110): reduced air pressure: 13.03.2019 19:00:00 - 19.03.2019 19:00:00 (CET)Trieste, Italia (16110): visibility: 13.03.2019 19:00:00 - 19.03.2019 19:00:00 (CET)Trieste, Italia (16110): ore di luce: 13.03.2019 19:00:00 - 19.03.2019 19:00:00 (CET)
Data & Tempo tt [°C] td [°C] ff [km/h] ff [kn] dd ppp [hPa] vv [km] sd [min]
19.03.2019 19:00:00 9,0 -2,3 16 9 ENE 1023,8 20 -
19.03.2019 18:00:00 10,0 -2,6 21 11 ENE 1023,5 20 0
19.03.2019 17:00:00 10,0 -3,0 18 10 ENE 1022,9 20 0
19.03.2019 16:00:00 10,0 -2,3 28 15 NE 1022,6 20 30
19.03.2019 15:00:00 10,0 -0,8 28 15 NE 1022,3 20 48
19.03.2019 14:00:00 9,0 0,4 31 17 NE 1022,4 20 6
19.03.2019 13:00:00 9,0 0,4 34 18 NE 1022,6 20 12
19.03.2019 12:00:00 9,2 0,6 28 15 NE 1022,6 20 24
19.03.2019 11:00:00 9,0 1,2 22 12 NE 1022,4 20 6
19.03.2019 10:00:00 8,2 0,9 29 16 NE 1022,1 20 0
19.03.2019 09:00:00 8,2 0,9 29 16 NE 1021,5 20 0
19.03.2019 08:00:00 8,0 0,7 26 14 NE 1020,8 20 0
19.03.2019 07:00:00 7,8 0,8 29 16 NE 1020,6 20 -
19.03.2019 06:00:00 - - - - - - - -
19.03.2019 05:00:00 - - - - - - - -
19.03.2019 04:00:00 - - - - - - - -
19.03.2019 03:00:00 - - - - - - - -
19.03.2019 02:00:00 - - - - - - - -
19.03.2019 01:00:00 - - - - - - - -
19.03.2019 00:00:00 - - - - - - - -
18.03.2019 23:00:00 - - - - - - - -
18.03.2019 22:00:00 - - - - - - - -
18.03.2019 21:00:00 - - - - - - - -
18.03.2019 20:00:00 - - - - - - - -
18.03.2019 19:00:00 7,0 2,9 28 15 NE 1017,9 10 -
18.03.2019 18:00:00 7,0 2,9 29 16 NE 1017,2 10 0
18.03.2019 17:00:00 7,0 2,7 35 19 NE 1016,0 10 0
18.03.2019 16:00:00 7,0 3,1 39 21 NE 1015,6 10 0
18.03.2019 15:00:00 6,0 4,2 37 20 NE 1015,3 4,0 0
18.03.2019 14:00:00 6,0 4,2 39 21 NNE 1015,2 4,0 0
18.03.2019 13:00:00 6,2 3,9 42 23 NE 1015,1 4,0 0
18.03.2019 12:00:00 7,0 4,8 29 16 N 1014,0 4,0 0
18.03.2019 11:00:00 12,0 9,7 8 4 NO 1012,5 10 0
18.03.2019 10:00:00 15,0 9,8 4 2 ESE 1011,7 10 0
18.03.2019 09:00:00 14,2 9,8 4 2 E 1011,5 10 0
18.03.2019 08:00:00 13,8 9,8 2 1 E 1011,1 10 0
18.03.2019 07:00:00 13,4 9,8 5 3 ESE 1010,6 10 -
18.03.2019 06:00:00 - - - - - - - -
18.03.2019 05:00:00 - - - - - - - -
18.03.2019 04:00:00 - - - - - - - -
18.03.2019 03:00:00 - - - - - - - -
18.03.2019 02:00:00 - - - - - - - -
18.03.2019 01:00:00 - - - - - - - -
18.03.2019 00:00:00 - - - - - - - -
17.03.2019 23:00:00 - - - - - - - -
17.03.2019 22:00:00 - - - - - - - -
17.03.2019 21:00:00 - - - - - - - -
17.03.2019 20:00:00 - - - - - - - -
17.03.2019 19:00:00 12,6 11,5 0 0 N 1012,4 20 -
17.03.2019 18:00:00 12,8 11,7 0 0 N 1012,8 20 0
17.03.2019 17:00:00 12,8 11,2 2 1 ONO 1013,0 20 0
17.03.2019 16:00:00 13,4 11,1 4 2 NO 1013,4 20 6
17.03.2019 15:00:00 14,6 9,6 0 0 N 1014,1 20 0
17.03.2019 14:00:00 14,2 11,2 0 0 N 1014,2 20 0
17.03.2019 13:00:00 14,8 11,0 0 0 N 1015,2 20 54
17.03.2019 12:00:00 17,6 9,8 11 6 O 1015,8 20 60
17.03.2019 11:00:00 16,4 9,8 11 6 N 1016,4 20 48
17.03.2019 10:00:00 15,4 10,0 11 6 SE 1016,4 20 24
17.03.2019 09:00:00 13,8 11,7 13 7 SE 1016,4 20 18
17.03.2019 08:00:00 13,6 12,0 5 3 NNE 1016,0 20 6
17.03.2019 07:00:00 11,4 10,1 0 0 N 1015,9 20 -
17.03.2019 06:00:00 - - - - - - - -
17.03.2019 05:00:00 - - - - - - - -
17.03.2019 04:00:00 - - - - - - - -
17.03.2019 03:00:00 - - - - - - - -
17.03.2019 02:00:00 - - - - - - - -
17.03.2019 01:00:00 - - - - - - - -
17.03.2019 00:00:00 - - - - - - - -
16.03.2019 23:00:00 - - - - - - - -
16.03.2019 22:00:00 - - - - - - - -
16.03.2019 21:00:00 - - - - - - - -
16.03.2019 20:00:00 - - - - - - - -
16.03.2019 19:00:00 11,6 9,7 0 0 N 1014,9 20 -
16.03.2019 18:00:00 12,2 10,4 0 0 N 1014,1 20 0
16.03.2019 17:00:00 13,2 10,9 0 0 N 1014,0 20 18
16.03.2019 16:00:00 13,8 10,4 0 0 N 1014,0 20 24
16.03.2019 15:00:00 14,4 10,4 0 0 N 1014,2 20 60
16.03.2019 14:00:00 14,8 10,6 8 4 OSO 1014,2 20 24
16.03.2019 13:00:00 14,4 9,8 0 0 N 1014,4 20 12
16.03.2019 12:00:00 14,4 10,0 0 0 N 1014,6 20 48
16.03.2019 11:00:00 14,2 10,2 0 0 N 1014,4 20 60
16.03.2019 10:00:00 13,4 9,1 0 0 N 1014,3 20 60
16.03.2019 09:00:00 11,2 9,5 0 0 N 1014,2 20 54
16.03.2019 08:00:00 9,4 8,2 0 0 N 1013,8 20 0
16.03.2019 07:00:00 8,0 7,1 0 0 N 1012,6 10 -
16.03.2019 06:00:00 - - - - - - - -
16.03.2019 05:00:00 - - - - - - - -
16.03.2019 04:00:00 - - - - - - - -
16.03.2019 03:00:00 - - - - - - - -
16.03.2019 02:00:00 - - - - - - - -
16.03.2019 01:00:00 - - - - - - - -
16.03.2019 00:00:00 - - - - - - - -
15.03.2019 23:00:00 - - - - - - - -
15.03.2019 22:00:00 - - - - - - - -
15.03.2019 21:00:00 - - - - - - - -
15.03.2019 20:00:00 - - - - - - - -
15.03.2019 19:00:00 10,8 7,5 0 0 N 1010,7 10 -
15.03.2019 18:00:00 11,8 7,9 0 0 N 1010,3 10 42
15.03.2019 17:00:00 12,4 9,1 0 0 N 1010,4 10 60
15.03.2019 16:00:00 13,2 9,3 0 0 N 1010,5 10 60
15.03.2019 15:00:00 13,2 9,5 0 0 N 1010,5 10 42
15.03.2019 14:00:00 12,2 9,2 0 0 N 1010,7 10 60
15.03.2019 13:00:00 12,0 8,3 0 0 N 1011,1 10 60
15.03.2019 12:00:00 11,2 7,9 5 3 ONO 1011,1 10 60
15.03.2019 11:00:00 11,0 6,9 5 3 ONO 1010,8 20 60
15.03.2019 10:00:00 11,2 6,7 0 0 N 1010,5 20 60
15.03.2019 09:00:00 10,8 5,1 0 0 N 1010,0 20 60
15.03.2019 08:00:00 7,8 4,9 0 0 N 1009,5 20 36
15.03.2019 07:00:00 5,8 3,7 0 0 N 1008,6 20 -
15.03.2019 06:00:00 - - - - - - - -
15.03.2019 05:00:00 - - - - - - - -
15.03.2019 04:00:00 - - - - - - - -
15.03.2019 03:00:00 - - - - - - - -
15.03.2019 02:00:00 - - - - - - - -
15.03.2019 01:00:00 - - - - - - - -
15.03.2019 00:00:00 - - - - - - - -
14.03.2019 23:00:00 - - - - - - - -
14.03.2019 22:00:00 - - - - - - - -
14.03.2019 21:00:00 - - - - - - - -
14.03.2019 20:00:00 - - - - - - - -
14.03.2019 19:00:00 9,0 3,6 0 0 N 1010,4 20 -
14.03.2019 18:00:00 10,0 4,6 2 1 ONO 1010,9 20 0
14.03.2019 17:00:00 10,0 3,7 0 0 N 1010,9 20 0
14.03.2019 16:00:00 10,0 3,3 0 0 N 1011,9 20 0
14.03.2019 15:00:00 11,0 3,1 0 0 N 1012,5 20 12
14.03.2019 14:00:00 12,8 3,7 4 2 O 1013,0 20 54
14.03.2019 13:00:00 12,6 5,1 4 2 O 1013,6 20 60
14.03.2019 12:00:00 11,4 5,1 0 0 N 1014,2 20 60
14.03.2019 11:00:00 10,0 4,4 0 0 N 1014,3 20 60
14.03.2019 10:00:00 9,0 4,2 0 0 N 1014,6 20 60
14.03.2019 09:00:00 8,2 4,2 0 0 N 1014,7 20 60
14.03.2019 08:00:00 5,0 3,2 0 0 N 1014,5 20 12
14.03.2019 07:00:00 4,0 2,7 4 2 NNE 1014,1 20 -
14.03.2019 06:00:00 - - - - - - - -
14.03.2019 05:00:00 - - - - - - - -
14.03.2019 04:00:00 - - - - - - - -
14.03.2019 03:00:00 - - - - - - - -
14.03.2019 02:00:00 - - - - - - - -
14.03.2019 01:00:00 - - - - - - - -
14.03.2019 00:00:00 - - - - - - - -
13.03.2019 23:00:00 - - - - - - - -
13.03.2019 22:00:00 - - - - - - - -
13.03.2019 21:00:00 - - - - - - - -
13.03.2019 20:00:00 - - - - - - - -
13.03.2019 19:00:00 8,0 4,8 11 6 NE 1013,1 20 -

tt = Temperatura
td = dewpoint
ff = velocità del vento
dd = direzione del vento
ppp = reduced air pressure
vv = visibility
sd = ore di luce

Stazioni seguenti

WeatherPro
AMSI
MeteoEarth